Portada
METAR-TAF:

METAR-TAF

Aeroports :

Richard B. Helgeson Airport

Two Harbors, Minnesota, Estats Units d'Amèrica

latitud: 47-03N, longitud: 091-45W, altitud: 328 m

Observació

L'informe es va fer fa 23 minuts, a les 02:15 UTC
Vent calma
Temperatura 14°C
Humitat 88%
Pressió 1015 hPa
Visibilitat: 16.1 km
Cel clar

METAR: KTWM 160215Z AUTO 00000KT 10SM CLR 14/12 A2998 RMK AO2

Hora: 21:38 (02:38 UTC)


TAF: manca

Observacions i pronòstics meteorològics de més de 4000 aeroports (METAR i TAF).

Les estacions disponibles són els punts grocs i vermells al mapa.

Posi el ratolí al punt desitjat per veure el nom de l'estació.

Feu clic per veure les observacions i els pronòstics meteorològics.

Per canviar el mapa: feu clic els botons verds amb una creu de color negre per apropar; al botó verd amb un guió per allunyar la imatge; o en les fletxes verdes per a mapes adjacents.


METAR-TAF: